Year,Month,Day,Hour,Minute,Value (Times are PST for temperature in C)
2021,08,18,00,00,16.80
2021,08,18,00,01,16.80
2021,08,18,00,02,16.70
2021,08,18,00,03,16.70
2021,08,18,00,04,16.70
2021,08,18,00,05,16.70
2021,08,18,00,06,16.60
2021,08,18,00,07,16.60
2021,08,18,00,08,16.60
2021,08,18,00,09,16.60
2021,08,18,00,10,16.50
2021,08,18,00,11,16.50
2021,08,18,00,12,16.50
2021,08,18,00,13,16.40
2021,08,18,00,14,16.40
2021,08,18,00,15,16.40
2021,08,18,00,16,16.30
2021,08,18,00,17,16.30
2021,08,18,00,18,16.30
2021,08,18,00,19,16.20
2021,08,18,00,20,16.20
2021,08,18,00,21,16.20
2021,08,18,00,22,16.20
2021,08,18,00,23,16.20
2021,08,18,00,24,16.10
2021,08,18,00,25,16.10
2021,08,18,00,26,16.10
2021,08,18,00,27,16.00
2021,08,18,00,28,16.00
2021,08,18,00,29,16.00
2021,08,18,00,30,15.90
2021,08,18,00,31,15.90
2021,08,18,00,32,15.90
2021,08,18,00,33,15.90
2021,08,18,00,34,15.90
2021,08,18,00,35,15.80
2021,08,18,00,36,15.80
2021,08,18,00,37,15.80
2021,08,18,00,38,15.80
2021,08,18,00,39,15.70
2021,08,18,00,40,15.70
2021,08,18,00,41,15.70
2021,08,18,00,42,15.70
2021,08,18,00,43,15.70
2021,08,18,00,44,15.70
2021,08,18,00,45,15.70
2021,08,18,00,46,15.70
2021,08,18,00,47,15.70
2021,08,18,00,48,15.70
2021,08,18,00,49,15.70
2021,08,18,00,50,15.70
2021,08,18,00,51,15.70
2021,08,18,00,52,15.70
2021,08,18,00,53,15.60
2021,08,18,00,54,15.60
2021,08,18,00,55,15.60
2021,08,18,00,56,15.60
2021,08,18,00,57,15.60
2021,08,18,00,58,15.60
2021,08,18,00,59,15.60
2021,08,18,01,00,15.60
2021,08,18,01,01,15.50
2021,08,18,01,02,15.50
2021,08,18,01,03,15.50
2021,08,18,01,04,15.40
2021,08,18,01,05,15.40
2021,08,18,01,06,15.40
2021,08,18,01,07,15.30
2021,08,18,01,08,15.30
2021,08,18,01,09,15.30
2021,08,18,01,10,15.30
2021,08,18,01,11,15.30
2021,08,18,01,12,15.30
2021,08,18,01,13,15.20
2021,08,18,01,14,15.20
2021,08,18,01,15,15.20
2021,08,18,01,16,15.20
2021,08,18,01,17,15.20
2021,08,18,01,18,15.20
2021,08,18,01,19,15.20
2021,08,18,01,20,15.20
2021,08,18,01,21,15.20
2021,08,18,01,22,15.10
2021,08,18,01,23,15.10
2021,08,18,01,24,15.10
2021,08,18,01,25,15.10
2021,08,18,01,26,15.10
2021,08,18,01,27,15.00
2021,08,18,01,28,15.00
2021,08,18,01,29,15.00
2021,08,18,01,30,15.00
2021,08,18,01,31,15.00
2021,08,18,01,32,15.10
2021,08,18,01,33,15.10
2021,08,18,01,34,15.10
2021,08,18,01,35,15.20
2021,08,18,01,36,15.20
2021,08,18,01,37,15.30
2021,08,18,01,38,15.40
2021,08,18,01,39,15.50
2021,08,18,01,40,15.60
2021,08,18,01,41,15.70
2021,08,18,01,42,15.70
2021,08,18,01,43,15.70
2021,08,18,01,44,15.70
2021,08,18,01,45,15.60
2021,08,18,01,46,15.60
2021,08,18,01,47,15.50
2021,08,18,01,48,15.40
2021,08,18,01,49,15.40
2021,08,18,01,50,15.30
2021,08,18,01,51,15.30
2021,08,18,01,52,15.20
2021,08,18,01,53,15.20
2021,08,18,01,54,15.20
2021,08,18,01,55,15.10
2021,08,18,01,56,15.10
2021,08,18,01,57,15.00
2021,08,18,01,58,15.00
2021,08,18,01,59,14.90
2021,08,18,02,00,14.90
2021,08,18,02,01,14.90
2021,08,18,02,02,14.90
2021,08,18,02,03,14.80
2021,08,18,02,04,14.80
2021,08,18,02,05,14.80
2021,08,18,02,06,14.80
2021,08,18,02,07,14.80
2021,08,18,02,08,14.80
2021,08,18,02,09,14.80
2021,08,18,02,10,14.80
2021,08,18,02,11,14.80
2021,08,18,02,12,14.80
2021,08,18,02,13,14.80
2021,08,18,02,14,14.80
2021,08,18,02,15,14.80
2021,08,18,02,16,14.80
2021,08,18,02,17,14.80
2021,08,18,02,18,14.80
2021,08,18,02,19,14.80
2021,08,18,02,20,14.70
2021,08,18,02,21,14.70
2021,08,18,02,22,14.70
2021,08,18,02,23,14.70
2021,08,18,02,24,14.70
2021,08,18,02,25,14.70
2021,08,18,02,26,14.60
2021,08,18,02,27,14.60
2021,08,18,02,28,14.60
2021,08,18,02,29,14.50
2021,08,18,02,30,14.50
2021,08,18,02,31,14.50
2021,08,18,02,32,14.40
2021,08,18,02,33,14.40
2021,08,18,02,34,14.40
2021,08,18,02,35,14.40
2021,08,18,02,36,14.40
2021,08,18,02,37,14.40
2021,08,18,02,38,14.30
2021,08,18,02,39,14.30
2021,08,18,02,40,14.30
2021,08,18,02,41,14.30
2021,08,18,02,42,14.30
2021,08,18,02,43,14.40
2021,08,18,02,44,14.40
2021,08,18,02,45,14.40
2021,08,18,02,46,14.40
2021,08,18,02,47,14.50
2021,08,18,02,48,14.40
2021,08,18,02,49,14.40
2021,08,18,02,50,14.40
2021,08,18,02,51,14.40
2021,08,18,02,52,14.30
2021,08,18,02,53,14.30
2021,08,18,02,54,14.30
2021,08,18,02,55,14.30
2021,08,18,02,56,14.30
2021,08,18,02,57,14.30
2021,08,18,02,58,14.30
2021,08,18,02,59,14.30
2021,08,18,03,00,14.30
2021,08,18,03,01,14.20
2021,08,18,03,02,14.20
2021,08,18,03,03,14.20
2021,08,18,03,04,14.20
2021,08,18,03,05,14.20
2021,08,18,03,06,14.20
2021,08,18,03,07,14.20
2021,08,18,03,08,14.20
2021,08,18,03,09,14.10
2021,08,18,03,10,14.10
2021,08,18,03,11,14.10
2021,08,18,03,12,14.00
2021,08,18,03,13,14.00
2021,08,18,03,14,14.00
2021,08,18,03,15,13.90
2021,08,18,03,16,13.90
2021,08,18,03,17,13.90
2021,08,18,03,18,13.80
2021,08,18,03,19,13.80
2021,08,18,03,20,13.80
2021,08,18,03,21,13.80
2021,08,18,03,22,13.80
2021,08,18,03,23,13.80
2021,08,18,03,24,13.80
2021,08,18,03,25,13.90
2021,08,18,03,26,13.90
2021,08,18,03,27,13.90
2021,08,18,03,28,13.90
2021,08,18,03,29,13.90
2021,08,18,03,30,13.90
2021,08,18,03,31,14.00
2021,08,18,03,32,14.00
2021,08,18,03,33,14.00
2021,08,18,03,34,13.90
2021,08,18,03,35,13.90
2021,08,18,03,36,13.90
2021,08,18,03,37,13.90
2021,08,18,03,38,13.90
2021,08,18,03,39,13.90
2021,08,18,03,40,13.90
2021,08,18,03,41,13.80
2021,08,18,03,42,13.80
2021,08,18,03,43,13.80
2021,08,18,03,44,13.70
2021,08,18,03,45,13.70
2021,08,18,03,46,13.70
2021,08,18,03,47,13.60
2021,08,18,03,48,13.60
2021,08,18,03,49,13.60
2021,08,18,03,50,13.50
2021,08,18,03,51,13.50
2021,08,18,03,52,13.50
2021,08,18,03,53,13.40
2021,08,18,03,54,13.40
2021,08,18,03,55,13.40
2021,08,18,03,56,13.40
2021,08,18,03,57,13.40
2021,08,18,03,58,13.40
2021,08,18,03,59,13.40
2021,08,18,04,00,13.40
2021,08,18,04,01,13.40
2021,08,18,04,02,13.40
2021,08,18,04,03,13.40
2021,08,18,04,04,13.40
2021,08,18,04,05,13.40
2021,08,18,04,06,13.40
2021,08,18,04,07,13.30
2021,08,18,04,08,13.30
2021,08,18,04,09,13.30
2021,08,18,04,10,13.30
2021,08,18,04,11,13.30
2021,08,18,04,12,13.20
2021,08,18,04,13,13.20
2021,08,18,04,14,13.20
2021,08,18,04,15,13.20
2021,08,18,04,16,13.20
2021,08,18,04,17,13.10
2021,08,18,04,18,13.10
2021,08,18,04,19,13.10
2021,08,18,04,20,13.10
2021,08,18,04,21,13.10
2021,08,18,04,22,13.10
2021,08,18,04,23,13.10
2021,08,18,04,24,13.10
2021,08,18,04,25,13.10
2021,08,18,04,26,13.10
2021,08,18,04,27,13.10
2021,08,18,04,28,13.10
2021,08,18,04,29,13.10
2021,08,18,04,30,13.10
2021,08,18,04,31,13.10
2021,08,18,04,32,13.10
2021,08,18,04,33,13.00
2021,08,18,04,34,13.00
2021,08,18,04,35,13.00
2021,08,18,04,36,12.90
2021,08,18,04,37,12.90
2021,08,18,04,38,12.90
2021,08,18,04,39,13.00
2021,08,18,04,40,12.90
2021,08,18,04,41,12.90
2021,08,18,04,42,12.90
2021,08,18,04,43,12.90
2021,08,18,04,44,12.90
2021,08,18,04,45,12.90
2021,08,18,04,46,12.80
2021,08,18,04,47,12.80
2021,08,18,04,48,12.80
2021,08,18,04,49,12.70
2021,08,18,04,50,12.70
2021,08,18,04,51,12.70
2021,08,18,04,52,12.60
2021,08,18,04,53,12.60
2021,08,18,04,54,12.60
2021,08,18,04,55,12.50
2021,08,18,04,56,12.50
2021,08,18,04,57,12.50
2021,08,18,04,58,12.50
2021,08,18,04,59,12.40
2021,08,18,05,00,12.40
2021,08,18,05,01,12.40
2021,08,18,05,02,12.40
2021,08,18,05,03,12.40
2021,08,18,05,04,12.40
2021,08,18,05,05,12.40
2021,08,18,05,06,12.30
2021,08,18,05,07,12.30
2021,08,18,05,08,12.30
2021,08,18,05,09,12.30
2021,08,18,05,10,12.30
2021,08,18,05,11,12.30
2021,08,18,05,12,12.30
2021,08,18,05,13,12.30
2021,08,18,05,14,12.30
2021,08,18,05,15,12.30
2021,08,18,05,16,12.30
2021,08,18,05,17,12.30
2021,08,18,05,18,12.30
2021,08,18,05,19,12.30
2021,08,18,05,20,12.30
2021,08,18,05,21,12.30
2021,08,18,05,22,12.40
2021,08,18,05,23,12.40
2021,08,18,05,24,12.40
2021,08,18,05,25,12.40
2021,08,18,05,26,12.30
2021,08,18,05,27,12.30
2021,08,18,05,28,12.30
2021,08,18,05,29,12.30
2021,08,18,05,30,12.30
2021,08,18,05,31,12.30
2021,08,18,05,32,12.30
2021,08,18,05,33,12.30
2021,08,18,05,34,12.30
2021,08,18,05,35,12.30
2021,08,18,05,36,12.30
2021,08,18,05,37,12.30
2021,08,18,05,38,12.30
2021,08,18,05,39,12.30
2021,08,18,05,40,12.30
2021,08,18,05,41,12.30
2021,08,18,05,42,12.30
2021,08,18,05,43,12.30
2021,08,18,05,44,12.30
2021,08,18,05,45,12.20
2021,08,18,05,46,12.20
2021,08,18,05,47,12.20
2021,08,18,05,48,12.20
2021,08,18,05,49,12.20
2021,08,18,05,50,12.20
2021,08,18,05,51,12.20
2021,08,18,05,52,12.20
2021,08,18,05,53,12.20
2021,08,18,05,54,12.20
2021,08,18,05,55,12.20
2021,08,18,05,56,12.20
2021,08,18,05,57,12.20
2021,08,18,05,58,12.20
2021,08,18,05,59,12.20
2021,08,18,06,00,12.10
2021,08,18,06,01,12.20
2021,08,18,06,02,12.10
2021,08,18,06,03,12.10
2021,08,18,06,04,12.10
2021,08,18,06,05,12.10
2021,08,18,06,06,12.10
2021,08,18,06,07,12.10
2021,08,18,06,08,12.10
2021,08,18,06,09,12.10
2021,08,18,06,10,12.10
2021,08,18,06,11,12.10
2021,08,18,06,12,12.10
2021,08,18,06,13,12.00
2021,08,18,06,14,12.00
2021,08,18,06,15,12.00
2021,08,18,06,16,12.00
2021,08,18,06,17,12.00
2021,08,18,06,18,12.10
2021,08,18,06,19,12.10
2021,08,18,06,20,12.10
2021,08,18,06,21,12.10
2021,08,18,06,22,12.10
2021,08,18,06,23,12.10
2021,08,18,06,24,12.10
2021,08,18,06,25,12.00
2021,08,18,06,26,12.00
2021,08,18,06,27,12.00
2021,08,18,06,28,12.00
2021,08,18,06,29,12.00
2021,08,18,06,30,11.90
2021,08,18,06,31,12.00
2021,08,18,06,32,12.00
2021,08,18,06,33,12.00
2021,08,18,06,34,12.00
2021,08,18,06,35,12.00
2021,08,18,06,36,12.00
2021,08,18,06,37,12.00
2021,08,18,06,38,12.00
2021,08,18,06,39,12.00
2021,08,18,06,40,12.00
2021,08,18,06,41,12.00
2021,08,18,06,42,12.00
2021,08,18,06,43,12.00
2021,08,18,06,44,12.00
2021,08,18,06,45,12.10
2021,08,18,06,46,12.10
2021,08,18,06,47,12.10
2021,08,18,06,48,12.10
2021,08,18,06,49,12.10
2021,08,18,06,50,12.10
2021,08,18,06,51,12.10
2021,08,18,06,52,12.10
2021,08,18,06,53,12.10
2021,08,18,06,54,12.10
2021,08,18,06,55,12.10
2021,08,18,06,56,12.10
2021,08,18,06,57,12.10
2021,08,18,06,58,12.10
2021,08,18,06,59,12.10
2021,08,18,07,00,12.10
2021,08,18,07,01,12.10
2021,08,18,07,02,12.10
2021,08,18,07,03,12.10
2021,08,18,07,04,12.10
2021,08,18,07,05,12.10
2021,08,18,07,06,12.10
2021,08,18,07,07,12.10
2021,08,18,07,08,12.10
2021,08,18,07,09,12.10
2021,08,18,07,10,12.20
2021,08,18,07,11,12.20
2021,08,18,07,12,12.20
2021,08,18,07,13,12.20
2021,08,18,07,14,12.30
2021,08,18,07,15,12.30
2021,08,18,07,16,12.30
2021,08,18,07,17,12.30
2021,08,18,07,18,12.40
2021,08,18,07,19,12.40
2021,08,18,07,20,12.50
2021,08,18,07,21,12.50
2021,08,18,07,22,12.60
2021,08,18,07,23,12.60
2021,08,18,07,24,12.60
2021,08,18,07,25,12.70
2021,08,18,07,26,12.80
2021,08,18,07,27,12.80
2021,08,18,07,28,12.80
2021,08,18,07,29,12.90
2021,08,18,07,30,12.90
2021,08,18,07,31,12.90
2021,08,18,07,32,12.90
2021,08,18,07,33,13.00
2021,08,18,07,34,13.00
2021,08,18,07,35,13.00
2021,08,18,07,36,13.00
2021,08,18,07,37,13.10
2021,08,18,07,38,13.10
2021,08,18,07,39,13.20
2021,08,18,07,40,13.20
2021,08,18,07,41,13.30
2021,08,18,07,42,13.30
2021,08,18,07,43,13.40
2021,08,18,07,44,13.40
2021,08,18,07,45,13.40
2021,08,18,07,46,13.40
2021,08,18,07,47,13.50
2021,08,18,07,48,13.50
2021,08,18,07,49,13.50
2021,08,18,07,50,13.60
2021,08,18,07,51,13.70
2021,08,18,07,52,13.70
2021,08,18,07,53,13.80
2021,08,18,07,54,13.80
2021,08,18,07,55,13.90
2021,08,18,07,56,13.90
2021,08,18,07,57,14.00
2021,08,18,07,58,14.10
2021,08,18,07,59,14.10
2021,08,18,08,00,14.20
2021,08,18,08,01,14.20
2021,08,18,08,02,14.30
2021,08,18,08,03,14.30
2021,08,18,08,04,14.40
2021,08,18,08,05,14.40
2021,08,18,08,06,14.40
2021,08,18,08,07,14.50
2021,08,18,08,08,14.50
2021,08,18,08,09,14.50
2021,08,18,08,10,14.60
2021,08,18,08,11,14.60
2021,08,18,08,12,14.60
2021,08,18,08,13,14.60
2021,08,18,08,14,14.60
2021,08,18,08,15,14.60
2021,08,18,08,16,14.60
2021,08,18,08,17,14.70
2021,08,18,08,18,14.70
2021,08,18,08,19,14.70
2021,08,18,08,20,14.70
2021,08,18,08,21,14.70
2021,08,18,08,22,14.80
2021,08,18,08,23,14.80
2021,08,18,08,24,14.80
2021,08,18,08,25,14.80
2021,08,18,08,26,14.80
2021,08,18,08,27,14.80
2021,08,18,08,28,14.90
2021,08,18,08,29,14.90
2021,08,18,08,30,14.90
2021,08,18,08,31,14.90
2021,08,18,08,32,14.90
2021,08,18,08,33,15.00
2021,08,18,08,34,15.00
2021,08,18,08,35,15.00
2021,08,18,08,36,15.10
2021,08,18,08,37,15.10
2021,08,18,08,38,15.10
2021,08,18,08,39,15.20
2021,08,18,08,40,15.20
2021,08,18,08,41,15.20
2021,08,18,08,42,15.30
2021,08,18,08,43,15.30
2021,08,18,08,44,15.30
2021,08,18,08,45,15.40
2021,08,18,08,46,15.40
2021,08,18,08,47,15.50
2021,08,18,08,48,15.60
2021,08,18,08,49,15.60
2021,08,18,08,50,15.70
2021,08,18,08,51,15.80
2021,08,18,08,52,15.80
2021,08,18,08,53,15.90
2021,08,18,08,54,16.00
2021,08,18,08,55,16.00
2021,08,18,08,56,16.10
2021,08,18,08,57,16.10
2021,08,18,08,58,16.20
2021,08,18,08,59,16.30
2021,08,18,09,00,16.30
2021,08,18,09,01,16.40
2021,08,18,09,02,16.40
2021,08,18,09,03,16.50
2021,08,18,09,04,16.50
2021,08,18,09,05,16.60
2021,08,18,09,06,16.60
2021,08,18,09,07,16.60
2021,08,18,09,08,16.70
2021,08,18,09,09,16.80
2021,08,18,09,10,16.80
2021,08,18,09,11,16.80
2021,08,18,09,12,16.80
2021,08,18,09,13,16.90
2021,08,18,09,14,16.90
2021,08,18,09,15,16.90
2021,08,18,09,16,16.90
2021,08,18,09,17,17.00
2021,08,18,09,18,17.00
2021,08,18,09,19,17.10
2021,08,18,09,20,17.10
2021,08,18,09,21,17.20
2021,08,18,09,22,17.30
2021,08,18,09,23,17.30
2021,08,18,09,24,17.40
2021,08,18,09,25,17.40
2021,08,18,09,26,17.50
2021,08,18,09,27,17.50
2021,08,18,09,28,17.60
2021,08,18,09,29,17.60
2021,08,18,09,30,17.70
2021,08,18,09,31,17.70
2021,08,18,09,32,17.80
2021,08,18,09,33,17.90
2021,08,18,09,34,17.90
2021,08,18,09,35,17.90
2021,08,18,09,36,18.00
2021,08,18,09,37,18.00
2021,08,18,09,38,18.10
2021,08,18,09,39,18.10
2021,08,18,09,40,18.10
2021,08,18,09,41,18.20
2021,08,18,09,42,18.20
2021,08,18,09,43,18.30
2021,08,18,09,44,18.40
2021,08,18,09,45,18.40
2021,08,18,09,46,18.50
2021,08,18,09,47,18.50
2021,08,18,09,48,18.60
2021,08,18,09,49,18.70
2021,08,18,09,50,18.70
2021,08,18,09,51,18.70
2021,08,18,09,52,18.70
2021,08,18,09,53,18.70
2021,08,18,09,54,18.80
2021,08,18,09,55,18.80
2021,08,18,09,56,18.90
2021,08,18,09,57,18.90
2021,08,18,09,58,19.00
2021,08,18,09,59,19.10
2021,08,18,10,00,19.10
2021,08,18,10,01,19.20
2021,08,18,10,02,19.30
2021,08,18,10,03,19.40
2021,08,18,10,04,19.40
2021,08,18,10,05,19.50
2021,08,18,10,06,19.50
2021,08,18,10,07,19.60
2021,08,18,10,08,19.60
2021,08,18,10,09,19.70
2021,08,18,10,10,19.70
2021,08,18,10,11,19.80
2021,08,18,10,12,19.80
2021,08,18,10,13,19.90
2021,08,18,10,14,19.90
2021,08,18,10,15,19.90
2021,08,18,10,16,19.90
2021,08,18,10,17,20.00
2021,08,18,10,18,20.00
2021,08,18,10,19,20.00
2021,08,18,10,20,20.00
2021,08,18,10,21,19.90
2021,08,18,10,22,19.90
2021,08,18,10,23,19.90
2021,08,18,10,24,19.90
2021,08,18,10,25,20.00
2021,08,18,10,26,20.00
2021,08,18,10,27,20.00
2021,08,18,10,28,20.10
2021,08,18,10,29,20.10
2021,08,18,10,30,20.10
2021,08,18,10,31,20.10
2021,08,18,10,32,20.20
2021,08,18,10,33,20.20
2021,08,18,10,34,20.30
2021,08,18,10,35,20.30
2021,08,18,10,36,20.30
2021,08,18,10,37,20.40
2021,08,18,10,38,20.40
2021,08,18,10,39,20.40
2021,08,18,10,40,20.40
2021,08,18,10,41,20.50
2021,08,18,10,42,20.50
2021,08,18,10,43,20.50
2021,08,18,10,44,20.50
2021,08,18,10,45,20.60
2021,08,18,10,46,20.60
2021,08,18,10,47,20.60
2021,08,18,10,48,20.60
2021,08,18,10,49,20.60
2021,08,18,10,50,20.60
2021,08,18,10,51,20.60
2021,08,18,10,52,20.60
2021,08,18,10,53,20.60
2021,08,18,10,54,20.60
2021,08,18,10,55,20.60
2021,08,18,10,56,20.60
2021,08,18,10,57,20.70
2021,08,18,10,58,20.70
2021,08,18,10,59,20.70
2021,08,18,11,00,20.70
2021,08,18,11,01,20.70
2021,08,18,11,02,20.70
2021,08,18,11,03,20.70
2021,08,18,11,04,20.70
2021,08,18,11,05,20.70
2021,08,18,11,06,20.80
2021,08,18,11,07,20.80
2021,08,18,11,08,20.80
2021,08,18,11,09,20.90
2021,08,18,11,10,20.90
2021,08,18,11,11,20.90
2021,08,18,11,12,21.00
2021,08,18,11,13,21.00
2021,08,18,11,14,21.00
2021,08,18,11,15,21.00
2021,08,18,11,16,20.90
2021,08,18,11,17,20.90
2021,08,18,11,18,20.90
2021,08,18,11,19,20.90
2021,08,18,11,20,21.00
2021,08,18,11,21,21.00
2021,08,18,11,22,21.00
2021,08,18,11,23,21.00
2021,08,18,11,24,21.00
2021,08,18,11,25,21.00
2021,08,18,11,26,21.30
2021,08,18,11,27,21.30
2021,08,18,11,28,21.30
2021,08,18,11,29,21.40
2021,08,18,11,30,21.40
2021,08,18,11,31,21.40
2021,08,18,11,32,21.40
2021,08,18,11,33,21.50
2021,08,18,11,34,21.50
2021,08,18,11,35,21.50
2021,08,18,11,36,21.50
2021,08,18,11,37,21.50
2021,08,18,11,38,21.50
2021,08,18,11,39,21.40
2021,08,18,11,40,21.40
2021,08,18,11,41,21.40
2021,08,18,11,42,21.40
2021,08,18,11,43,21.40
2021,08,18,11,44,21.50
2021,08,18,11,45,21.50
2021,08,18,11,46,21.60
2021,08,18,11,47,21.60
2021,08,18,11,48,21.70
2021,08,18,11,49,21.70
2021,08,18,11,50,21.70
2021,08,18,11,51,21.80
2021,08,18,11,52,21.90
2021,08,18,11,53,21.90
2021,08,18,11,54,22.00
2021,08,18,11,55,22.00
2021,08,18,11,56,22.10
2021,08,18,11,57,22.10
2021,08,18,11,58,22.10
2021,08,18,11,59,22.10
2021,08,18,12,00,22.10
2021,08,18,12,01,22.00
2021,08,18,12,02,22.00
2021,08,18,12,03,22.00
2021,08,18,12,04,22.00
2021,08,18,12,05,22.10
2021,08,18,12,06,22.10
2021,08,18,12,07,22.10
2021,08,18,12,08,22.10
2021,08,18,12,09,22.10
2021,08,18,12,10,22.10
2021,08,18,12,11,22.20
2021,08,18,12,12,22.30
2021,08,18,12,13,22.30
2021,08,18,12,14,22.30
2021,08,18,12,15,22.30
2021,08,18,12,16,22.30
2021,08,18,12,17,22.40
2021,08,18,12,18,22.40
2021,08,18,12,19,22.50
2021,08,18,12,20,22.60
2021,08,18,12,21,22.60
2021,08,18,12,22,22.60
2021,08,18,12,23,22.60
2021,08,18,12,24,22.60
2021,08,18,12,25,22.60
2021,08,18,12,26,22.60
2021,08,18,12,27,22.60
2021,08,18,12,28,22.60
2021,08,18,12,29,22.60
2021,08,18,12,30,22.60
2021,08,18,12,31,22.50
2021,08,18,12,32,22.50
2021,08,18,12,33,22.40
2021,08,18,12,34,22.40
2021,08,18,12,35,22.40
2021,08,18,12,36,22.30
2021,08,18,12,37,22.30
2021,08,18,12,38,22.30
2021,08,18,12,39,22.20
2021,08,18,12,40,22.20
2021,08,18,12,41,22.30
2021,08,18,12,42,22.30
2021,08,18,12,43,22.30
2021,08,18,12,44,22.30
2021,08,18,12,45,22.40
2021,08,18,12,46,22.50
2021,08,18,12,47,22.60
2021,08,18,12,48,22.70
2021,08,18,12,49,22.70
2021,08,18,12,50,22.80
2021,08,18,12,51,22.90
2021,08,18,12,52,23.00
2021,08,18,12,53,23.00
2021,08,18,12,54,23.10
2021,08,18,12,55,23.20
2021,08,18,12,56,23.30
2021,08,18,12,57,23.30
2021,08,18,12,58,23.40
2021,08,18,12,59,23.50
2021,08,18,13,00,23.60
2021,08,18,13,01,23.60
2021,08,18,13,02,23.60
2021,08,18,13,03,23.60
2021,08,18,13,04,23.60
2021,08,18,13,05,23.60
2021,08,18,13,06,23.60
2021,08,18,13,07,23.80
2021,08,18,13,08,23.90
2021,08,18,13,09,24.00
2021,08,18,13,10,24.00
2021,08,18,13,11,24.10
2021,08,18,13,12,24.10
2021,08,18,13,13,24.10
2021,08,18,13,14,24.20
2021,08,18,13,15,24.30
2021,08,18,13,16,24.40
2021,08,18,13,17,24.50
2021,08,18,13,18,24.60
2021,08,18,13,19,24.70
2021,08,18,13,20,24.80
2021,08,18,13,21,25.00
2021,08,18,13,22,25.10
2021,08,18,13,23,25.10
2021,08,18,13,24,25.10
2021,08,18,13,25,25.10
2021,08,18,13,26,25.00
2021,08,18,13,27,24.90
2021,08,18,13,28,24.90
2021,08,18,13,29,24.90
2021,08,18,13,30,24.90
2021,08,18,13,31,24.90
2021,08,18,13,32,25.00
2021,08,18,13,33,25.00
2021,08,18,13,34,25.00
2021,08,18,13,35,24.90
2021,08,18,13,36,24.90
2021,08,18,13,37,24.90
2021,08,18,13,38,24.90
2021,08,18,13,39,24.80
2021,08,18,13,40,24.70
2021,08,18,13,41,24.70
2021,08,18,13,42,24.70
2021,08,18,13,43,24.80
2021,08,18,13,44,24.80
2021,08,18,13,45,24.70
2021,08,18,13,46,24.80
2021,08,18,13,47,24.80
2021,08,18,13,48,24.80
2021,08,18,13,49,24.70
2021,08,18,13,50,24.70
2021,08,18,13,51,24.60
2021,08,18,13,52,24.60
2021,08,18,13,53,24.70
2021,08,18,13,54,24.80
2021,08,18,13,55,24.90
2021,08,18,13,56,24.90
2021,08,18,13,57,24.90
2021,08,18,13,58,24.90
2021,08,18,13,59,24.90
2021,08,18,14,00,24.90
2021,08,18,14,01,24.90
2021,08,18,14,02,24.90
2021,08,18,14,03,24.90
2021,08,18,14,04,25.00
2021,08,18,14,05,25.00
2021,08,18,14,06,25.00
2021,08,18,14,07,25.10
2021,08,18,14,08,25.10
2021,08,18,14,09,25.20
2021,08,18,14,10,25.30
2021,08,18,14,11,25.30
2021,08,18,14,12,25.40
2021,08,18,14,13,25.40
2021,08,18,14,14,25.50
2021,08,18,14,15,25.50
2021,08,18,14,16,25.60
2021,08,18,14,17,25.60
2021,08,18,14,18,25.60
2021,08,18,14,19,25.60
2021,08,18,14,20,25.60
2021,08,18,14,21,25.60
2021,08,18,14,22,25.60
2021,08,18,14,23,25.60
2021,08,18,14,24,25.60
2021,08,18,14,25,25.60
2021,08,18,14,26,25.70
2021,08,18,14,27,25.70
2021,08,18,14,28,25.60
2021,08,18,14,29,25.70
2021,08,18,14,30,25.70
2021,08,18,14,31,25.80
2021,08,18,14,32,26.00
2021,08,18,14,33,26.10
2021,08,18,14,34,26.10
2021,08,18,14,35,26.20
2021,08,18,14,36,26.20
2021,08,18,14,37,26.20
2021,08,18,14,38,26.20
2021,08,18,14,39,26.10
2021,08,18,14,40,26.10
2021,08,18,14,41,26.00
2021,08,18,14,42,26.00
2021,08,18,14,43,26.00
2021,08,18,14,44,26.10
2021,08,18,14,45,26.10
2021,08,18,14,46,26.10
2021,08,18,14,47,26.10
2021,08,18,14,48,26.10
2021,08,18,14,49,26.10
2021,08,18,14,50,26.10
2021,08,18,14,51,26.10
2021,08,18,14,52,26.20
2021,08,18,14,53,26.30
2021,08,18,14,54,26.30
2021,08,18,14,55,26.30
2021,08,18,14,56,26.40
2021,08,18,14,57,26.40
2021,08,18,14,58,26.50
2021,08,18,14,59,26.50
2021,08,18,15,00,26.60
2021,08,18,15,01,26.60
2021,08,18,15,02,26.60
2021,08,18,15,03,26.60
2021,08,18,15,04,26.60
2021,08,18,15,05,26.60
2021,08,18,15,06,26.70
2021,08,18,15,07,26.70
2021,08,18,15,08,26.70
2021,08,18,15,09,26.70
2021,08,18,15,10,26.60
2021,08,18,15,11,26.60
2021,08,18,15,12,26.50
2021,08,18,15,13,26.40
2021,08,18,15,14,26.40
2021,08,18,15,15,26.40
2021,08,18,15,16,26.40
2021,08,18,15,17,26.30
2021,08,18,15,18,26.40
2021,08,18,15,19,26.50
2021,08,18,15,20,26.60
2021,08,18,15,21,26.60
2021,08,18,15,22,26.70
2021,08,18,15,23,26.80
2021,08,18,15,24,26.80
2021,08,18,15,25,26.90
2021,08,18,15,26,27.00
2021,08,18,15,27,27.00
2021,08,18,15,28,27.10
2021,08,18,15,29,27.00
2021,08,18,15,30,26.90
2021,08,18,15,31,26.80
2021,08,18,15,32,26.80
2021,08,18,15,33,26.70
2021,08,18,15,34,26.70
2021,08,18,15,35,26.70
2021,08,18,15,36,26.70
2021,08,18,15,37,26.60
2021,08,18,15,38,26.60
2021,08,18,15,39,26.60
2021,08,18,15,40,26.60
2021,08,18,15,41,26.70
2021,08,18,15,42,26.70
2021,08,18,15,43,26.70
2021,08,18,15,44,26.80
2021,08,18,15,45,26.90
2021,08,18,15,46,26.90
2021,08,18,15,47,26.90
2021,08,18,15,48,26.80
2021,08,18,15,49,26.70
2021,08,18,15,50,26.60
2021,08,18,15,51,26.60
2021,08,18,15,52,26.60
2021,08,18,15,53,26.70
2021,08,18,15,54,26.80
2021,08,18,15,55,26.90
2021,08,18,15,56,26.90
2021,08,18,15,57,27.00
2021,08,18,15,58,27.00
2021,08,18,15,59,27.00
2021,08,18,16,00,27.00
2021,08,18,16,01,27.00
2021,08,18,16,02,27.00
2021,08,18,16,03,27.00
2021,08,18,16,04,26.90
2021,08,18,16,05,26.80
2021,08,18,16,06,26.80
2021,08,18,16,07,26.70
2021,08,18,16,08,26.70
2021,08,18,16,09,26.70
2021,08,18,16,10,26.60
2021,08,18,16,11,26.40
2021,08,18,16,12,26.20
2021,08,18,16,13,26.10
2021,08,18,16,14,26.00
2021,08,18,16,15,25.80
2021,08,18,16,16,25.70
2021,08,18,16,17,25.70
2021,08,18,16,18,25.60
2021,08,18,16,19,25.60
2021,08,18,16,20,25.60
2021,08,18,16,21,25.50
2021,08,18,16,22,25.50
2021,08,18,16,23,25.50
2021,08,18,16,24,25.50
2021,08,18,16,25,25.50
2021,08,18,16,26,25.50
2021,08,18,16,27,25.60
2021,08,18,16,28,25.60
2021,08,18,16,29,25.70
2021,08,18,16,30,25.70
2021,08,18,16,31,25.60
2021,08,18,16,32,25.60
2021,08,18,16,33,25.60
2021,08,18,16,34,25.60
2021,08,18,16,35,25.70
2021,08,18,16,36,25.60
2021,08,18,16,37,25.60
2021,08,18,16,38,25.60
2021,08,18,16,39,25.60
2021,08,18,16,40,25.70
2021,08,18,16,41,25.70
2021,08,18,16,42,25.80
2021,08,18,16,43,25.80
2021,08,18,16,44,25.90
2021,08,18,16,45,25.90
2021,08,18,16,46,25.90
2021,08,18,16,47,25.90
2021,08,18,16,48,25.80
2021,08,18,16,49,25.70
2021,08,18,16,50,25.70
2021,08,18,16,51,25.70
2021,08,18,16,52,25.80
2021,08,18,16,53,25.80
2021,08,18,16,54,25.80
2021,08,18,16,55,25.80
2021,08,18,16,56,25.80
2021,08,18,16,57,25.80
2021,08,18,16,58,25.90
2021,08,18,16,59,25.90
2021,08,18,17,00,25.90
2021,08,18,17,01,25.90
2021,08,18,17,02,25.90
2021,08,18,17,03,25.90
2021,08,18,17,04,25.90
2021,08,18,17,05,25.80
2021,08,18,17,06,25.70
2021,08,18,17,07,25.70
2021,08,18,17,08,25.60
2021,08,18,17,09,25.60
2021,08,18,17,10,25.60
2021,08,18,17,11,25.60
2021,08,18,17,12,25.50
2021,08,18,17,13,25.50
2021,08,18,17,14,25.60
2021,08,18,17,15,25.50
2021,08,18,17,16,25.50
2021,08,18,17,17,25.50
2021,08,18,17,18,25.40
2021,08,18,17,19,25.40